Regional Weather Roundup
Issued by NWS Glasgow, MT

Home | Current Version | Previous Version | Text Only | Print | Product List | Glossary On
Versions: 1 2 3 4 5 6 7 8 9 10 11 12 13 14 15 16 17 18 19 20 21 22 23 24 25 26 27 28
000
ASUS45 KGGW 240415
RWRGGW
HOURLY REGIONAL WEATHER ROUNDUP FOR NORTHEAST MONTANA
NATIONAL WEATHER SERVICE GLASGOW MONTANA
1000 PM MDT THU MAR 23 2017

NOTE: "FAIR" INDICATES FEW OR NO CLOUDS BELOW 12,000 FEET WITH NO
SIGNIFICANT WEATHER AND/OR OBSTRUCTIONS TO VISISBILITY.

NORTHEAST MONTANA


CITY           SKY/WX    TMP DP  RH WIND       PRES   REMARKS
GLASGOW        CLEAR     45  30  55 NW3       29.91R
PLENTYWOOD       N/A     36  32  85 SE6         N/A
WOLF POINT     CLOUDY    45  37  73 NE8       29.93R
JORDAN           N/A     40  31  70 W5        29.93R
WINNETT          N/A     35  27  72 SW3G13      N/A
SIDNEY         CLOUDY    46  37  71 NE6       29.91R
GLENDIVE       CLOUDY    47  33  58 NW10      29.91R
MALTA            N/A     39  27  62 SW3         N/A
SCOBEY           N/A     38  25  60 CALM      29.91R

FORT PECK REPORTS


CITY           SKY/WX    TMP DP  RH WIND       PRES   REMARKS
FORT PECK        N/A     45  32  60 S5G13       N/A
THE PINES        N/A     48  25  40 SE2         N/A

SOUTHEAST MONTANA


CITY           SKY/WX    TMP DP  RH WIND       PRES   REMARKS
BILLINGS       PTCLDY    45  36  70 CALM      29.96R
MILES CITY     CLOUDY    48  31  51 CALM      29.92R
BAKER          CLOUDY    44  39  82 W14       29.92R
LIVINGSTON     CLEAR     31  21  66 SW5       29.99R

CENTRAL MONTANA


CITY           SKY/WX    TMP DP  RH WIND       PRES   REMARKS
HAVRE          CLEAR     39  28  64 SW3       29.94R
LEWISTOWN      CLEAR     35  19  52 S9        29.98R
GREAT FALLS    CLEAR     33  18  53 W8        29.99R
CUT BANK       MOCLDY    34  21  59 W10       29.96R
HELENA         CLEAR     38  23  55 W9        30.01R
BUTTE          CLEAR     35  21  56 VRB6      30.03R
BOZEMAN        CLEAR     41  26  55 CALM      29.99R

WESTERN MONTANA


CITY           SKY/WX    TMP DP  RH WIND       PRES   REMARKS
MISSOULA       CLEAR     36  26  67 W8        30.06R
KALISPELL      NOT AVBL

NORTH DAKOTA


CITY           SKY/WX    TMP DP  RH WIND       PRES   REMARKS
WILLISTON      CLOUDY    39  34  82 N7        29.93R
DICKINSON      PTCLDY    40  37  89 SW9       29.90R
MINOT          CLEAR     32  30  92 NW6       29.92R
BISMARCK       PTCLDY    38  35  89 NW5       29.91R

SOUTHERN SASKATCHEWAN


CITY           SKY/WX    TMP DP  RH WIND       PRES   REMARKS
REGINA         PTCLDY    32  27  80 NE8       29.96R
ESTEVAN        PTCLDY    30  30 100 NE8       29.93R
SWIFT CURRENT  CLEAR     34  30  86 E10       29.91R





USA.gov is the U.S. government's official web portal to all federal, state and local government web resources and services.